Regional Weather Roundup
Issued by NWS

Home | Current Version | Previous Version | Graphics & Text | Print | Product List | Glossary On
Versions: 1 2 3 4 5 6 7 8 9 10 11 12 13 14 15 16 17 18 19 20 21 22 23 24 25 26 27 28 29 30 31 32 33 34 35 36 37 38 39 40 41 42 43 44 45 46 47 48
000
ASUS45 KBOI 042210
RWRID

IDAHO REGIONAL WEATHER ROUNDUP
NATIONAL WEATHER SERVICE BOISE ID
400 PM MDT SAT JUL 04 2015

NOTE: "FAIR" INDICATES FEW OR NO CLOUDS BELOW 12000 FEET
WITH NO SIGNIFICANT WEATHER AND/OR OBSTRUCTIONS TO VISIBILITY

IDZ012-014-042300-
SOUTHWEST IDAHO


CITY           SKY/WX    TMP DP  RH WIND       PRES   REMARKS
BOISE          CLOUDY    97  40  14 NW12      29.80F HX  92
CALDWELL       CLOUDY   100  39  12 N3        29.78  HX  95
MOUNTAIN HOME  PTSUNNY  101  31   8 NW14      29.79F HX  95
$$

IDZ016-017-042300-
SOUTHCENTRAL IDAHO


CITY           SKY/WX    TMP DP  RH WIND       PRES   REMARKS
BURLEY         PTSUNNY   90  45  21 W7        29.87F
JEROME         MOSUNNY   96  33  11 SW8       29.88F HX  91
TWIN FALLS     MOSUNNY   98  38  12 W3        29.86F HX  93
$$

IDZ019>023-042300-
SOUTHEAST IDAHO


CITY           SKY/WX    TMP DP  RH WIND       PRES   REMARKS
IDAHO FALLS    MOSUNNY   93  28  10 SE9       29.92F
POCATELLO      SUNNY     95  40  14 SW9G20    29.90F HX  91
REXBURG        MOSUNNY   92  36  14 SW13      29.92F
$$

IDZ006-010-011-018-031-032-042300-
CENTRAL IDAHO MOUNTAINS


CITY           SKY/WX    TMP DP  RH WIND       PRES   REMARKS
MCCALL         PTSUNNY   90  30  11 VRB3      29.94F
HAILEY         MOSUNNY   90  41  18 S10G18    29.95F
STANLEY          N/A     85  29  13 VRB6      30.07F
SALMON         MOSUNNY   93  41  16 N9        29.79F
CHALLIS        MOSUNNY   94  36  13 NE6       29.89F
$$

IDZ002-004-006-007-026-042300-
NORTHERN IDAHO


CITY           SKY/WX    TMP DP  RH WIND       PRES   REMARKS
LEWISTON       SUNNY    102  42  13 MISG      29.69F HX  97
LOWELL           N/A    107  46  13 CALM      29.67F HX 103
COEUR D`ALENE  SUNNY     95  48  20 W8        29.75F HX  91
MULLAN PASS    SUNNY     77  41  27 VRB5      30.03F
$$



USA.gov is the U.S. government's official web portal to all federal, state and local government web resources and services.